Location: Fiddletown
(38.4917°N, 120.6633°W)
Time: 11:49:25
(UTC-07:00)

Envisat - Visible Passes

Search period start: 01 July 2016 00:00
Search period end: 11 July 2016 00:00
Orbit: 765 x 766 km, 98.3° (Epoch: 01 July)

Date Brightness Start Highest point End Pass type
(mag) Time Alt. Az. Time Alt. Az. Time Alt. Az.
01 Jul 4.7 22:29:09 10° SSW 22:33:28 28° W 22:37:49 10° NW visible
02 Jul 3.3 21:51:38 10° S 21:56:39 65° WSW 22:01:43 10° NNW visible
03 Jul 3.2 21:15:05 10° SSE 21:20:02 55° ENE 21:25:00 10° N visible
03 Jul 5.4 22:56:23 10° SW 22:59:21 16° W 23:02:22 10° NW visible
04 Jul 4.3 22:17:47 10° SSW 22:22:24 35° W 22:27:04 10° NNW visible
05 Jul 3.1 21:40:34 10° SSE 21:45:39 83° WSW 21:50:46 10° NNW visible
06 Jul 3.5 21:04:18 10° SE 21:09:05 43° ENE 21:13:53 10° N visible
06 Jul 5.1 22:44:35 10° SW 22:48:15 20° W 22:51:57 10° NW visible
07 Jul 3.9 22:06:31 10° S 22:11:21 45° W 22:16:14 10° NNW visible
08 Jul 3.0 21:29:35 10° SSE 21:34:39 78° ENE 21:39:45 10° N visible
08 Jul 5.7 23:13:10 10° W 23:14:12 11° W 23:15:14 10° WNW visible
09 Jul 3.8 20:53:36 10° SE 20:58:09 34° ENE 21:02:43 10° N visible
09 Jul 4.8 22:33:01 10° SSW 22:37:10 25° W 22:41:21 10° NW visible
10 Jul 3.5 21:55:25 10° S 22:00:20 58° W 22:05:21 10° NNW visible
